SCP
0 0 0 0 0 0 0 0 0 0 0 0 0 0 0 0 0 0 0 0 0 0 0 0 0 0 0 0 0 0 0 0
0 0 0 0 0 0 0 0 0 0 0 0 0 0 0 0 0 0 0 0 0 0 0 0 0 0 0 0 0 0 0 0
0 0 0 0 0 0 0 0 0 0 0 0 0 0 0 0 0 0 0 0 0 0 0 0 0 0 0 0 0 0 0 0
0 0 0 0 0 0 0 0 0 0 0 0 0 0 0 0 0 0 0 0 0 0 0 0 0 0 0 0 0 0 0 0
0 0 0 0 0 0 0 0 0 0 0 0 0 0 0 0 0 0 0 0 0 0 0 0 0 0 0 0 0 0 0 0
0 0 0 0 0 0 0 0 0 0 0 0 0 0 0 0 0 0 0 0 0 0 0 0 0 0 0 0 0 0 0 0
0 0 0 0 0 0 0 0 0 0 0 0 0 0 0 0 0 0 0 0 0 0 0 0 0 0 0 0 0 0 0 0
0 0 0 0 0 0 0 0 0 0 0 0 0 0 0 0 0 0 0 0 0 0 0 0 0 0 0 0 0 0 0 0
0 0 0 0 0 0 0 0 0 0 0 0 0 0 0 0 0 0 0 0 0 0 0 0 0 0 0 0 0 0 0 0
0 0 0 0 0 0 0 0 0 0 0 0 0 0 0 0 0 0 0 0 0 0 0 0 0 0 0 0 0 0 0 0
0 0 0 0 0 0 0 0 0 0 0 0 0 0 0 0 0 0 0 0 0 0 0 0 0 0 0 0 0 0 0 0
0 0 0 0 0 0 0 0 0 0 0 0 0 0 0 0 0 0 0 0 0 0 0 0 0 0 0 0 0 0 0 0
0 0 0 0 0 0 0 0 0 0 0 0 0 0 0 0 0 0 0 0 0 0 0 0 0 0 0 0 0 0 0 0
0 0 0 0 0 0 0 0 0 0 0 0 0 0 0 0 0 0 0 0 0 0 0 0 0 0 0 0 0 0 0 0
0 0 0 0 0 0 0 0 0 0 0 0 0 0 0 0 0 0 0 0 0 0 0 0 0 0 0 0 0 0 0 0
0 0 0 0 0 0 0 0 0 0 0 0 0 0 0 0 0 0 0 0 0 0 0 0 0 0 0 0 0 0 0 0
0 0 0 0 0 0 0 0 0 0 0 0 0 0 0 0 0 0 0 0 0 0 0 0 0 0 0 0 0 0 0 0
0 0 0 0 0 0 0 0 0 0 0 0 0 0 0 0 0 0 0 0 0 0 0 0 0 0 0 0 0 0 0 0
0 0 0 0 0 0 0 0 0 0 0 0 0 0 0 0 0 0 0 0 0 0 0 0 0 0 0 0 0 0 0 0
0 0 0 0 0 0 0 0 0 0 0 0 0 0 0 0 0 0 0 0 0 0 0 0 0 0 0 0 0 0 0 0
Wind_Speed_500mb
15 16 16 16 17 16 15 12 9 7 6 4 1 3 8 12 15 18 22 24 24 24 22 19 15 12 13 15 19 22 26 30
21 19 19 20 22 22 20 17 15 13 10 6 5 7 11 14 18 20 20 20 19 17 15 12 10 11 15 20 25 30 35 37
29 26 27 29 31 29 26 22 21 18 14 11 10 6 11 16 19 19 18 15 10 9 8 10 12 19 25 29 34 38 40 43
34 34 34 38 38 35 32 30 27 22 18 14 12 14 14 16 18 19 14 10 7 5 6 10 15 21 27 33 36 39 43 46
44 47 44 47 44 41 40 34 29 26 21 15 13 14 15 15 12 11 10 7 4 5 9 14 19 27 31 36 39 39 40 41
59 54 53 55 50 49 45 38 34 30 24 19 15 12 13 12 8 7 6 4 3 6 11 17 23 33 38 40 42 43 43 44
67 63 64 62 56 53 47 41 38 34 28 20 13 15 18 9 6 5 1 2 4 9 15 20 27 33 37 40 40 40 43 46
79 73 71 68 65 54 51 44 39 31 25 18 13 12 11 7 4 3 1 6 9 13 18 24 28 34 37 36 38 40 42 45
73 73 72 71 64 60 50 43 38 32 24 15 11 9 10 6 4 1 3 8 11 16 20 24 29 35 39 38 37 36 39 41
62 73 74 68 62 54 46 40 34 27 22 19 13 12 9 5 2 5 6 9 13 18 21 24 27 33 41 45 43 42 41 42
61 72 69 59 52 46 42 38 32 27 22 14 16 14 10 4 2 5 6 10 14 17 21 24 28 33 40 45 45 42 42 41
56 56 49 45 45 45 41 36 31 26 20 22 18 12 7 3 2 3 8 12 17 20 22 25 29 32 37 42 41 43 48 49
43 41 39 40 42 40 37 32 28 23 25 20 15 10 4 2 2 7 13 15 17 18 21 24 29 33 37 41 40 41 46 49
41 40 42 42 40 37 34 30 29 29 26 20 13 8 5 1 5 10 13 15 17 19 23 25 29 32 38 40 40 40 42 43
38 41 42 42 38 33 31 30 31 26 21 16 11 7 5 4 7 11 14 15 17 20 23 26 30 33 39 43 41 41 41 43
41 45 43 42 39 36 35 33 27 23 18 14 11 8 5 6 9 10 12 16 19 24 28 29 30 32 32 37 42 43 45 46
46 44 43 41 37 36 33 31 25 20 16 14 12 9 6 6 6 9 13 15 18 20 25 27 28 28 31 35 38 41 44 46
45 42 42 41 38 34 31 28 23 20 18 16 9 6 5 7 9 12 13 14 16 18 22 26 29 31 34 36 36 38 41 42
43 43 41 39 38 34 30 27 25 22 16 10 7 6 7 9 11 13 14 14 16 20 23 26 28 33 36 39 37 33 35 40
44 45 44 41 36 33 31 27 23 16 12 10 9 10 12 11 13 14 16 17 19 21 24 27 27 31 33 37 40 42 43 43
Wind_Direction_500mb
236 240 250 251 247 244 242 235 225 212 200 199 229 355 342 334 330 330 329 327 326 327 327 330 331 344 2 8 11 6 3 360
241 254 258 252 248 247 245 239 233 228 226 238 278 314 322 326 326 323 320 319 318 320 327 330 338 1 11 14 11 5 0 358
255 266 260 255 249 245 241 238 236 236 240 249 259 274 310 315 312 308 305 303 305 312 331 337 351 6 7 7 6 1 358 356
252 261 256 253 246 241 240 236 236 239 243 254 277 298 305 307 304 299 297 297 300 321 358 345 4 2 5 4 3 0 357 353
252 254 250 250 248 242 238 235 235 235 238 252 276 290 297 298 291 286 280 278 295 340 358 344 358 354 0 2 359 358 355 350
250 246 246 248 245 239 236 233 232 232 234 243 256 277 288 282 280 272 268 264 307 6 5 351 354 352 354 358 355 353 351 349
250 245 244 245 242 236 233 230 231 234 237 240 252 261 271 277 276 265 282 334 3 10 4 357 354 351 352 356 354 352 349 348
258 246 241 239 238 232 231 229 232 234 232 229 242 265 262 250 249 246 4 8 13 13 5 357 352 345 346 355 352 354 353 349
255 238 233 233 230 229 225 226 226 224 225 228 236 243 231 213 243 317 24 352 0 3 1 356 350 346 351 354 355 352 350 347
245 232 228 227 229 223 220 219 218 219 224 222 220 222 211 206 285 336 1 348 359 359 354 353 351 354 357 355 354 352 352 348
228 225 222 223 226 218 212 209 211 221 217 194 202 198 196 189 288 324 348 356 3 358 353 357 356 354 358 358 353 352 354 351
212 215 217 221 215 208 205 207 207 199 179 189 183 175 186 196 304 321 344 352 359 0 357 355 350 349 352 356 354 351 350 349
216 216 216 212 205 202 202 197 188 174 178 173 174 177 181 169 269 338 352 351 354 350 349 354 349 346 346 351 356 351 350 351
225 218 205 198 195 193 186 177 172 177 172 173 167 159 174 249 334 335 334 345 348 350 349 350 349 347 347 352 355 353 352 350
214 201 193 190 185 185 180 172 174 169 168 169 167 172 208 281 321 334 341 343 344 346 351 356 352 349 350 348 350 350 350 351
193 190 188 180 182 177 173 171 171 173 172 174 181 205 243 300 317 321 330 343 351 348 349 350 346 353 350 350 349 350 350 347
184 185 185 175 176 173 170 171 178 178 179 189 204 220 254 283 303 324 333 338 340 337 340 345 345 344 345 348 349 345 346 344
183 178 179 174 172 171 174 179 183 187 195 203 208 228 269 299 312 318 322 326 324 331 338 339 337 339 339 343 347 343 341 341
178 175 175 174 176 178 180 184 190 195 197 202 225 259 280 294 305 314 319 324 329 330 331 336 337 335 334 336 342 337 341 346
177 180 178 178 179 182 187 191 196 197 206 223 247 269 282 296 307 314 321 323 324 325 326 326 332 331 333 334 335 340 343 345
Wind_Speed_850mb
15 16 16 16 17 16 15 12 9 7 6 4 1 3 8 12 15 18 22 24 24 24 22 19 15 12 13 15 19 22 26 30
21 19 19 20 22 22 20 17 15 13 10 6 5 7 11 14 18 20 20 20 19 17 15 12 10 11 15 20 25 30 35 37
29 26 27 29 31 29 26 22 21 18 14 11 10 6 11 16 19 19 18 15 10 9 8 10 12 19 25 29 34 38 40 43
34 34 34 38 38 35 32 30 27 22 18 14 12 14 14 16 18 19 14 10 7 5 6 10 15 21 27 33 36 39 43 46
44 47 44 47 44 41 40 34 29 26 21 15 13 14 15 15 12 11 10 7 4 5 9 14 19 27 31 36 39 39 40 41
59 54 53 55 50 49 45 38 34 30 24 19 15 12 13 12 8 7 6 4 3 6 11 17 23 33 38 40 42 43 43 44
67 63 64 62 56 53 47 41 38 34 28 20 13 15 18 9 6 5 1 2 4 9 15 20 27 33 37 40 40 40 43 46
79 73 71 68 65 54 51 44 39 31 25 18 13 12 11 7 4 3 1 6 9 13 18 24 28 34 37 36 38 40 42 45
73 73 72 71 64 60 50 43 38 32 24 15 11 9 10 6 4 1 3 8 11 16 20 24 29 35 39 38 37 36 39 41
62 73 74 68 62 54 46 40 34 27 22 19 13 12 9 5 2 5 6 9 13 18 21 24 27 33 41 45 43 42 41 42
61 72 69 59 52 46 42 38 32 27 22 14 16 14 10 4 2 5 6 10 14 17 21 24 28 33 40 45 45 42 42 41
56 56 49 45 45 45 41 36 31 26 20 22 18 12 7 3 2 3 8 12 17 20 22 25 29 32 37 42 41 43 48 49
43 41 39 40 42 40 37 32 28 23 25 20 15 10 4 2 2 7 13 15 17 18 21 24 29 33 37 41 40 41 46 49
41 40 42 42 40 37 34 30 29 29 26 20 13 8 5 1 5 10 13 15 17 19 23 25 29 32 38 40 40 40 42 43
38 41 42 42 38 33 31 30 31 26 21 16 11 7 5 4 7 11 14 15 17 20 23 26 30 33 39 43 41 41 41 43
41 45 43 42 39 36 35 33 27 23 18 14 11 8 5 6 9 10 12 16 19 24 28 29 30 32 32 37 42 43 45 46
46 44 43 41 37 36 33 31 25 20 16 14 12 9 6 6 6 9 13 15 18 20 25 27 28 28 31 35 38 41 44 46
45 42 42 41 38 34 31 28 23 20 18 16 9 6 5 7 9 12 13 14 16 18 22 26 29 31 34 36 36 38 41 42
43 43 41 39 38 34 30 27 25 22 16 10 7 6 7 9 11 13 14 14 16 20 23 26 28 33 36 39 37 33 35 40
44 45 44 41 36 33 31 27 23 16 12 10 9 10 12 11 13 14 16 17 19 21 24 27 27 31 33 37 40 42 43 43
Wind_Direction_850mb
236 240 250 251 247 244 242 235 225 212 200 199 229 355 342 334 330 330 329 327 326 327 327 330 331 344 2 8 11 6 3 360
241 254 258 252 248 247 245 239 233 228 226 238 278 314 322 326 326 323 320 319 318 320 327 330 338 1 11 14 11 5 0 358
255 266 260 255 249 245 241 238 236 236 240 249 259 274 310 315 312 308 305 303 305 312 331 337 351 6 7 7 6 1 358 356
252 261 256 253 246 241 240 236 236 239 243 254 277 298 305 307 304 299 297 297 300 321 358 345 4 2 5 4 3 0 357 353
252 254 250 250 248 242 238 235 235 235 238 252 276 290 297 298 291 286 280 278 295 340 358 344 358 354 0 2 359 358 355 350
250 246 246 248 245 239 236 233 232 232 234 243 256 277 288 282 280 272 268 264 307 6 5 351 354 352 354 358 355 353 351 349
250 245 244 245 242 236 233 230 231 234 237 240 252 261 271 277 276 265 282 334 3 10 4 357 354 351 352 356 354 352 349 348
258 246 241 239 238 232 231 229 232 234 232 229 242 265 262 250 249 246 4 8 13 13 5 357 352 345 346 355 352 354 353 349
255 238 233 233 230 229 225 226 226 224 225 228 236 243 231 213 243 317 24 352 0 3 1 356 350 346 351 354 355 352 350 347
245 232 228 227 229 223 220 219 218 219 224 222 220 222 211 206 285 336 1 348 359 359 354 353 351 354 357 355 354 352 352 348
228 225 222 223 226 218 212 209 211 221 217 194 202 198 196 189 288 324 348 356 3 358 353 357 356 354 358 358 353 352 354 351
212 215 217 221 215 208 205 207 207 199 179 189 183 175 186 196 304 321 344 352 359 0 357 355 350 349 352 356 354 351 350 349
216 216 216 212 205 202 202 197 188 174 178 173 174 177 181 169 269 338 352 351 354 350 349 354 349 346 346 351 356 351 350 351
225 218 205 198 195 193 186 177 172 177 172 173 167 159 174 249 334 335 334 345 348 350 349 350 349 347 347 352 355 353 352 350
214 201 193 190 185 185 180 172 174 169 168 169 167 172 208 281 321 334 341 343 344 346 351 356 352 349 350 348 350 350 350 351
193 190 188 180 182 177 173 171 171 173 172 174 181 205 243 300 317 321 330 343 351 348 349 350 346 353 350 350 349 350 350 347
184 185 185 175 176 173 170 171 178 178 179 189 204 220 254 283 303 324 333 338 340 337 340 345 345 344 345 348 349 345 346 344
183 178 179 174 172 171 174 179 183 187 195 203 208 228 269 299 312 318 322 326 324 331 338 339 337 339 339 343 347 343 341 341
178 175 175 174 176 178 180 184 190 195 197 202 225 259 280 294 305 314 319 324 329 330 331 336 337 335 334 336 342 337 341 346
177 180 178 178 179 182 187 191 196 197 206 223 247 269 282 296 307 314 321 323 324 325 326 326 332 331 333 334 335 340 343 345